Simultaneous Nadir Overpasses (SNOs) Predictions

Prediction of SNOs between GOES-17 and METOP-A Satellite Orbit:

Table of predicted SNOs for the next 14.0 days since TLE Epoch: 2/27/2021
Index Date Time (GOES-17) GOES-17 Lat,Lon METOP-A Lat,Lon Distance(km) Time Diff (sec)
1 02/27/2021 05:32:51 -0.02,-137.21 -0.27,-138.30 125.16 80
2 02/28/2021 05:09:32 -0.02,-137.21 0.84,-133.33 442.28 80
3 03/01/2021 17:31:03 0.02,-137.23 0.20,-137.92 79.88 80
4 03/02/2021 17:07:43 0.02,-137.23 -0.92,-132.95 487.18 80
5 03/04/2021 05:29:24 -0.02,-137.21 -0.08,-137.59 42.52 80
6 03/06/2021 17:24:55 0.02,-137.21 0.00,-137.21 2.16 80
7 03/09/2021 05:23:15 -0.02,-137.17 0.06,-136.86 35.52 80
8 03/10/2021 17:42:07 0.02,-137.16 0.98,-141.46 489.04 80
9 03/11/2021 17:24:07 0.02,-137.15 -0.14,-136.48 76.87 80
